FW2779 Naranjito PR US current weather conditions

sailwx.info

Wind from 264 at 5 knots gusting 5

Air temperature 23.3° C
Dewpoint 20.7° C

Last reported at 2019-Dec-11 21:46 UTC.
Time now 2019-Dec-11 22:22 UTC

Location: N 18°19' W 066°13'.
View on Google Maps.

See reports from other nearby stations

  
Tides and Currents Weather Stations Pressure Air Temp Water Temp Dewpoint Dewpoint Depression Visibility Wind Speed Wind Dir Waves Ship Positions
date/time (UTC)wind fromknots sea level pressurealtimeterstation pressurevisibilityair tempwater tempwave heightnotes
2019-Dec-11 21:46 264 5 gusting 5 23.3
2019-Dec-11 21:36 266 2 gusting 6 23.9
2019-Dec-11 21:26 260 6 gusting 10 23.9
2019-Dec-11 21:16 270 4 gusting 6 23.9
2019-Dec-11 21:06 248 1 gusting 6 24.4
2019-Dec-11 20:56 250 1 gusting 4 25.0
2019-Dec-11 20:46 243 2 gusting 3 25.0
2019-Dec-11 20:36 247 0 gusting 1 25.6
2019-Dec-11 20:26 259 1 gusting 1 25.6
2019-Dec-11 20:16 295 1 gusting 3 25.6
2019-Dec-11 20:06 063 24.4
2019-Dec-11 19:56 084 2 gusting 4 24.4
2019-Dec-11 19:46 329 25.0
2019-Dec-11 19:36 307 23.9
2019-Dec-11 19:26 244 23.3
2019-Dec-11 19:16 248 1 gusting 6 23.3
2019-Dec-11 19:06 270 2 gusting 15 23.9
2019-Dec-11 18:56 210 4 gusting 6 25.6
2019-Dec-11 18:46 236 25.6
2019-Dec-11 18:36 259 2 gusting 3 25.6
2019-Dec-11 18:26 224 0 gusting 4 25.6
2019-Dec-11 18:16 268 25.0
2019-Dec-11 18:06 072 24.4
2019-Dec-11 17:56 072 0 gusting 3 23.3
2019-Dec-11 17:45 137 1 gusting 1 22.2
2019-Dec-11 17:35 214 22.2
2019-Dec-11 17:25 266 1 gusting 9 22.2
2019-Dec-11 17:15 237 4 gusting 14 23.9
2019-Dec-11 17:05 242 7 gusting 13 26.7
2019-Dec-11 16:55 288 6 gusting 10 26.7
2019-Dec-11 16:45 281 2 gusting 9 27.8
2019-Dec-11 16:35 271 6 gusting 10 27.2
2019-Dec-11 16:25 205 5 gusting 10 27.2
2019-Dec-11 16:15 252 5 gusting 10 26.7
2019-Dec-11 16:05 259 5 gusting 13 27.2
2019-Dec-11 15:55 248 7 gusting 9 27.8
2019-Dec-11 15:45 266 4 gusting 10 27.2
2019-Dec-11 15:35 212 5 gusting 11 27.2
2019-Dec-11 15:25 233 3 gusting 8 27.2
2019-Dec-11 15:15 252 4 gusting 9 26.7
2019-Dec-11 15:05 254 4 gusting 9 27.2
2019-Dec-11 14:55 249 2 gusting 8 27.2
2019-Dec-11 14:45 241 4 gusting 10 26.7
2019-Dec-11 14:35 263 5 gusting 7 26.7
2019-Dec-11 14:25 234 2 gusting 8 26.7
2019-Dec-11 14:15 271 5 gusting 6 26.7
2019-Dec-11 14:05 253 3 gusting 6 26.7
2019-Dec-11 13:55 227 2 gusting 6 26.7
2019-Dec-11 13:45 220 3 gusting 7 26.1
2019-Dec-11 13:35 261 3 gusting 6 25.6
2019-Dec-11 13:25 255 2 gusting 6 26.1
2019-Dec-11 13:15 244 3 gusting 5 26.1
2019-Dec-11 13:05 248 1 gusting 4 26.1
2019-Dec-11 12:55 264 2 gusting 3 26.1
2019-Dec-11 12:45 248 25.6
2019-Dec-11 12:35 257 0 gusting 3 25.6
2019-Dec-11 12:25 257 25.6
2019-Dec-11 12:14 261 0 gusting 0 25.0
2019-Dec-11 12:04 252 23.9
2019-Dec-11 11:54 261 24.4
2019-Dec-11 11:44 259 23.9
2019-Dec-11 11:34 255 23.3
2019-Dec-11 11:24 270 22.8
2019-Dec-11 11:14 315 22.2
2019-Dec-11 11:04 244 22.2
2019-Dec-11 10:54 243 22.2
2019-Dec-11 10:44 265 22.2
2019-Dec-11 10:34 262 22.2
2019-Dec-11 10:24 248 22.2
2019-Dec-11 10:14 242 1 gusting 6 22.2
2019-Dec-11 10:04 251 22.2
2019-Dec-11 09:54 246 22.2
2019-Dec-11 09:44 246 22.2
2019-Dec-11 09:34 246 22.2
2019-Dec-11 09:24 246 22.2
2019-Dec-11 09:14 246 22.2
2019-Dec-11 09:04 246 22.8
2019-Dec-11 08:54 246 1 gusting 6 22.8
2019-Dec-11 08:44 274 2 gusting 4 22.2
2019-Dec-11 08:34 247 22.8
2019-Dec-11 08:24 250 22.8
2019-Dec-11 08:14 250 22.8
2019-Dec-11 08:04 248 22.8
2019-Dec-11 07:54 252 22.2
2019-Dec-11 07:44 250 22.2
2019-Dec-11 07:34 250 22.8
2019-Dec-11 07:24 250 22.8
2019-Dec-11 07:14 255 22.8
2019-Dec-11 07:04 236 22.8
2019-Dec-11 06:54 252 22.8
2019-Dec-11 06:44 266 23.3
2019-Dec-11 06:34 302 22.8
2019-Dec-11 06:24 236 22.8
2019-Dec-11 06:14 250 22.8
2019-Dec-11 06:04 244 22.8
2019-Dec-11 05:54 255 22.8
2019-Dec-11 05:44 250 22.8
2019-Dec-11 05:34 257 22.8
2019-Dec-11 05:24 240 22.2
2019-Dec-11 05:14 248 22.8
2019-Dec-11 05:04 252 22.2
2019-Dec-11 04:54 245 22.2
2019-Dec-11 04:44 248 22.2
2019-Dec-11 04:34 241 22.2
2019-Dec-11 04:24 242 22.2
2019-Dec-11 04:14 245 22.2
2019-Dec-11 04:04 252 22.8
2019-Dec-11 03:54 250 23.3
2019-Dec-11 03:44 252 23.3
2019-Dec-11 03:34 254 23.3
2019-Dec-11 03:24 257 23.3
2019-Dec-11 03:14 250 23.3
2019-Dec-11 03:04 250 23.3
2019-Dec-11 02:54 258 23.3
2019-Dec-11 02:44 250 23.3
2019-Dec-11 02:34 264 23.3
2019-Dec-11 02:24 252 23.3
2019-Dec-11 02:14 246 22.8
2019-Dec-11 02:03 262 22.8
2019-Dec-11 01:53 228 23.3
2019-Dec-11 01:43 231 23.9
2019-Dec-11 01:33 255 23.3
2019-Dec-11 01:23 255 23.9
2019-Dec-11 01:13 253 23.3
2019-Dec-11 01:03 238 23.9
2019-Dec-11 00:53 226 23.3
2019-Dec-11 00:43 226 23.9
2019-Dec-11 00:33 243 24.4
2019-Dec-11 00:23 246 23.9
2019-Dec-11 00:13 240 23.9
2019-Dec-11 00:03 245 24.4
2019-Dec-10 23:53 255 24.4
2019-Dec-10 23:43 254 24.4
2019-Dec-10 23:33 257 24.4
2019-Dec-10 23:23 271 23.9
2019-Dec-10 23:13 268 23.9
2019-Dec-10 23:03 268 23.9
2019-Dec-10 22:53 275 23.9
2019-Dec-10 22:43 255 23.9
2019-Dec-10 22:33 257 24.4
2019-Dec-10 22:23 257 24.4
2019-Dec-10 22:13 238 24.4
2019-Dec-10 22:03 254 24.4
2019-Dec-10 21:53 236 25.0
2019-Dec-10 21:43 257 25.6
2019-Dec-10 21:33 247 25.6
2019-Dec-10 21:23 250 25.6
2019-Dec-10 21:13 261 25.6
2019-Dec-10 21:03 263 25.6
2019-Dec-10 20:53 240 25.6
2019-Dec-10 20:43 280 26.1
2019-Dec-10 20:33 277 26.7
2019-Dec-10 20:23 249 26.7
2019-Dec-10 20:13 262 26.1
2019-Dec-10 20:03 233 26.1
2019-Dec-10 19:53 260 26.7
2019-Dec-10 19:43 279 26.7
2019-Dec-10 19:33 236 26.7
2019-Dec-10 19:23 248 26.7
2019-Dec-10 19:13 280 26.1
2019-Dec-10 19:03 249 26.7
2019-Dec-10 18:53 251 26.7
2019-Dec-10 18:43 244 26.7
2019-Dec-10 18:33 259 26.7
2019-Dec-10 18:23 229 27.2
2019-Dec-10 18:13 236 27.8
2019-Dec-10 18:03 234 27.2
2019-Dec-10 17:53 234 27.2
2019-Dec-10 17:43 256 27.2
2019-Dec-10 17:33 323 27.2
2019-Dec-10 17:23 238 27.2
2019-Dec-10 17:13 134 26.1
2019-Dec-10 17:03 240 26.7
2019-Dec-10 16:53 235 26.1
2019-Dec-10 16:43 195 25.6
2019-Dec-10 16:33 245 25.6
2019-Dec-10 16:23 240 25.0
2019-Dec-10 16:12 252 25.0
2019-Dec-10 16:02 255 27.2
2019-Dec-10 15:52 240 27.2
2019-Dec-10 15:42 238 26.7
2019-Dec-10 15:32 252 27.8
2019-Dec-10 15:22 249 27.8
2019-Dec-10 15:12 273 27.2
2019-Dec-10 15:02 252 27.8
2019-Dec-10 14:52 257 27.2
2019-Dec-10 14:42 238 26.7
2019-Dec-10 14:32 248 26.7
2019-Dec-10 14:22 242 26.1
2019-Dec-10 14:12 266 25.0
2019-Dec-10 14:02 248 25.0
2019-Dec-10 13:52 213 25.6
2019-Dec-10 13:42 284 26.1
2019-Dec-10 13:32 259 26.7
2019-Dec-10 13:22 252 26.7
2019-Dec-10 13:12 244 26.1
2019-Dec-10 13:02 237 26.7
2019-Dec-10 12:52 259 26.1
2019-Dec-10 12:42 245 26.1
2019-Dec-10 12:32 245 26.1
2019-Dec-10 12:22 257 25.6
2019-Dec-10 12:12 257 25.6
2019-Dec-10 12:02 259 25.0
2019-Dec-10 11:52 255 24.4
2019-Dec-10 11:42 013 24.4
2019-Dec-10 11:32 073 23.3
2019-Dec-10 11:22 069 23.3
2019-Dec-10 11:12 097 22.8
2019-Dec-10 11:02 094 22.8
2019-Dec-10 10:52 093 22.2
2019-Dec-10 10:42 062 22.2
2019-Dec-10 10:32 289 22.2
2019-Dec-10 10:22 079 22.2
2019-Dec-10 10:12 302 22.8
2019-Dec-10 10:02 280 22.8
2019-Dec-10 09:52 279 23.3
2019-Dec-10 09:42 268 22.8
2019-Dec-10 09:32 272 22.8
2019-Dec-10 09:22 259 22.8
2019-Dec-10 09:12 295 22.8
2019-Dec-10 09:02 278 22.8
2019-Dec-10 08:52 251 22.8
2019-Dec-10 08:42 283 22.8
2019-Dec-10 08:32 188 22.8
2019-Dec-10 08:22 249 22.8
2019-Dec-10 08:12 257 22.8
2019-Dec-10 08:02 229 22.8
2019-Dec-10 07:52 224 22.8
2019-Dec-10 07:42 094 22.8
2019-Dec-10 07:31 131 22.8
2019-Dec-10 07:21 176 23.3
2019-Dec-10 07:11 267 23.3
2019-Dec-10 07:01 315 22.8
2019-Dec-10 06:51 060 22.8
2019-Dec-10 06:41 104 22.8
2019-Dec-10 06:31 068 22.8
2019-Dec-10 06:21 015 22.8
2019-Dec-10 06:11 222 22.8
2019-Dec-10 06:01 252 22.8
2019-Dec-10 05:51 260 22.8
2019-Dec-10 05:41 288 22.8
2019-Dec-10 05:31 251 22.8
2019-Dec-10 05:21 233 22.8
2019-Dec-10 05:11 295 22.8
2019-Dec-10 05:01 098 22.8
2019-Dec-10 04:51 231 22.8
2019-Dec-10 04:41 059 22.8
2019-Dec-10 04:31 050 22.2
2019-Dec-10 04:21 271 22.2
2019-Dec-10 04:11 282 22.2
2019-Dec-10 04:01 068 22.2
2019-Dec-10 03:51 072 22.2
2019-Dec-10 03:41 071 22.2
2019-Dec-10 03:31 070 22.2
2019-Dec-10 03:21 239 22.2
2019-Dec-10 03:11 239 22.2
2019-Dec-10 03:01 239 22.2
2019-Dec-10 02:51 239 22.2
2019-Dec-10 02:41 239 22.2
2019-Dec-10 02:31 041 22.2
2019-Dec-10 02:21 042 22.2
2019-Dec-10 02:11 042 22.2
2019-Dec-10 02:01 042 22.2
2019-Dec-10 01:51 042 22.2
2019-Dec-10 01:41 130 22.2
2019-Dec-10 01:31 228 22.2
2019-Dec-10 01:21 226 22.8
2019-Dec-10 01:11 120 22.8
2019-Dec-10 01:01 253 22.2
2019-Dec-10 00:51 257 22.8
2019-Dec-10 00:41 208 22.8
2019-Dec-10 00:31 208 22.8
2019-Dec-10 00:21 208 22.8
2019-Dec-10 00:11 209 22.8
2019-Dec-10 00:01 209 22.8
2019-Dec-09 23:51 207 22.8
2019-Dec-09 23:41 087 22.8
2019-Dec-09 23:31 086 22.8
2019-Dec-09 23:21 086 22.8
2019-Dec-09 23:11 083 22.8
2019-Dec-09 23:01 253 22.8
2019-Dec-09 22:51 253 22.8
2019-Dec-09 22:41 255 22.8
2019-Dec-09 22:31 202 23.3
2019-Dec-09 22:21 070 23.3
2019-Dec-09 22:11 300 23.3
2019-Dec-09 22:01 057 23.3